Weather History for Zanesville, OH

Change the Weather History Date:

Saturday, April 20, 2013

  Actual Average Record
Temperature  
Mean Temperature 39 °F 53 °F  
Max Temperature 48 °F 65 °F 85 °F (1985)
Min Temperature 30 °F 41 °F 25 °F (1951)
Degree Days  
Heating Degree Days 26 12  
Month to date heating degree days 261 306  
Since 1 July heating degree days 5278 5250  
Cooling Degree Days 0 0  
Month to date cooling degree days 17 0  
Year to date cooling degree days 17 1  
Moisture  
Dew Point 27 °F    
Average Humidity 62    
Maximum Humidity 82    
Minimum Humidity 42    
Precipitation  
Precipitation 0.01 in 0.12 in 1.29 in (1964)
Month to date precipitation 1.30 2.30  
Year to date precipitation 7.96 10.13  
Sea Level Pressure  
Sea Level Pressure 30.16 in    
Wind  
Wind Speed 9 mph (West)    
Max Wind Speed 26 mph    
Max Gust Speed 35 mph    
Visibility 10 miles    
Events Snow    
T = Trace of Precipitation, MM = Missing Value Source: NWS Daily Summary

Daily Weather History Graph

Daily Weather History Graph

Search for Another Location

Airport:

Trip Planner

Search our weather history database for the weather conditions in past years. The results will help you decide how hot, cold, wet, or windy it might be!

Date:

Astronomy

Apr. 20, 2013 Rise Set
Actual Time 6:42 AM EDT 8:11 PM EDT
Civil Twilight 6:13 AM EDT 8:39 PM EDT
Nautical Twilight 5:39 AM EDT 9:14 PM EDT
Astronomical Twilight 5:03 AM EDT 9:50 PM EDT
Moon 2:54 PM EDT (4/20) 3:30 AM EDT (4/20)
Length of Visible Light 14h 26m
Length of Day
13h 29m
Waxing Gibbous, 71% of the Moon is Illuminated
Apr 20
Waxing Gibbous
Apr 25
Full
May 2
Last Quarter
May 9
New
May 18
First Quarter

Hourly Weather History & Observations

Time (EDT) Temp. Windchill Dew Point Humidity Pressure Visibility Wind Dir Wind Speed Gust Speed Precip Events Conditions
12:53 AM 39.9 °F 33.4 °F 30.0 °F 68% 29.96 in 10.0 mi SW 10.4 mph 24.2 mph N/A   Overcast
1:53 AM 39.9 °F 33.9 °F 28.9 °F 65% 29.97 in 10.0 mi WSW 9.2 mph 20.7 mph 0.00 in   Mostly Cloudy
2:53 AM 39.0 °F 33.4 °F 28.0 °F 65% 29.98 in 10.0 mi SW 8.1 mph 17.3 mph N/A   Overcast
3:53 AM 39.0 °F 31.4 °F 28.0 °F 65% 29.98 in 10.0 mi WSW 12.7 mph 20.7 mph N/A   Mostly Cloudy
4:15 AM 35.6 °F 25.5 °F 30.2 °F 81% 29.98 in 2.5 mi West 17.3 mph 34.5 mph 0.01 in Snow Light Snow
4:25 AM 35.6 °F 27.1 °F 32.0 °F 87% 29.98 in 8.0 mi West 12.7 mph 19.6 mph 0.01 in Snow Light Snow
4:53 AM 35.1 °F 27.9 °F 30.9 °F 85% 30.01 in 10.0 mi West 9.2 mph - 0.01 in   Scattered Clouds
5:53 AM 37.0 °F 29.8 °F 30.0 °F 76% 30.02 in 10.0 mi WSW 10.4 mph 16.1 mph N/A   Overcast
6:53 AM 37.0 °F 29.8 °F 30.0 °F 76% 30.04 in 10.0 mi West 10.4 mph - N/A   Scattered Clouds
7:53 AM 37.9 °F 30.9 °F 28.9 °F 70% 30.07 in 10.0 mi West 10.4 mph 21.9 mph N/A   Mostly Cloudy
8:53 AM 39.0 °F 30.6 °F 27.0 °F 62% 30.11 in 10.0 mi West 15.0 mph 25.3 mph N/A   Mostly Cloudy
9:53 AM 42.1 °F 35.2 °F 28.0 °F 58% 30.13 in 10.0 mi West 12.7 mph 26.5 mph N/A   Partly Cloudy
10:53 AM 42.1 °F 34.9 °F 24.1 °F 49% 30.17 in 10.0 mi West 13.8 mph 25.3 mph N/A   Mostly Cloudy
11:53 AM 44.1 °F 36.5 °F 26.1 °F 49% 30.19 in 10.0 mi WSW 17.3 mph 26.5 mph N/A   Mostly Cloudy
12:53 PM 45.0 °F 37.4 °F 27.0 °F 49% 30.20 in 10.0 mi West 18.4 mph 25.3 mph N/A   Mostly Cloudy
1:53 PM 46.0 °F 39.6 °F 27.0 °F 47% 30.21 in 10.0 mi West 15.0 mph 20.7 mph N/A   Overcast
2:53 PM 45.0 °F 39.3 °F 26.1 °F 48% 30.23 in 10.0 mi WNW 11.5 mph - N/A   Overcast
3:53 PM 45.0 °F 38.5 °F 25.0 °F 46% 30.25 in 10.0 mi West 13.8 mph 26.5 mph N/A   Mostly Cloudy
4:53 PM 46.9 °F - 26.1 °F 44% 30.27 in 10.0 mi NNW 11.5 mph 18.4 mph N/A   Overcast
5:53 PM 46.0 °F 43.9 °F 25.0 °F 44% 30.29 in 10.0 mi Variable 4.6 mph - N/A   Mostly Cloudy
6:53 PM 45.0 °F 40.1 °F 25.0 °F 46% 30.30 in 10.0 mi NW 9.2 mph - N/A   Partly Cloudy
7:53 PM 41.0 °F 37.1 °F 25.0 °F 53% 30.32 in 10.0 mi NNW 5.8 mph - N/A   Partly Cloudy
8:53 PM 39.0 °F 35.7 °F 23.0 °F 53% 30.35 in 10.0 mi North 4.6 mph - N/A   Clear
9:53 PM 37.0 °F 34.5 °F 23.0 °F 57% 30.38 in 10.0 mi NNW 3.5 mph - N/A   Clear
10:53 PM 37.0 °F - 23.0 °F 57% 30.40 in 10.0 mi Calm Calm - N/A   Clear
11:53 PM 32.0 °F - 25.0 °F 75% 30.42 in 10.0 mi Calm Calm - N/A   Clear